[Iaude] MPEC G74: 2024 FQ5 [a=1.00,e=0.14,i=10.3,H=30.9]

mpec at cfa.harvard.edu mpec at cfa.harvard.edu
Fri Apr 5 22:16:11 EDT 2024


M.P.E.C. 2024-G74                                 Issued 2024 April 6, 02:14 UT

     The Minor Planet Electronic Circulars contain information on unusual
         minor planets, routine data on comets and natural satellites,
         and occasional editorial announcements.  They are published
    on behalf of Division F of the International Astronomical Union by the
          Minor Planet Center, Smithsonian Astrophysical Observatory,
                          Cambridge, MA 02138, U.S.A.
			  
             Prepared using the Tamkin Foundation Computer Network

                              MPC at CFA.HARVARD.EDU
            URL https://www.minorplanetcenter.net/    ISSN 1523-6714

                                    2024 FQ5                                    


Observations:
     K24F05Q*KC2024 03 31.06138 14 55 02.02 +31 50 35.8          19.8 GXEG074L51
     K24F05Q KC2024 03 31.06264 14 55 03.04 +31 49 59.5          19.4 GXEG074L51
     K24F05Q KC2024 03 31.06379 14 55 03.88 +31 49 25.8          19.6 GXEG074L51
     K24F05Q KC2024 03 31.08141 14 55 18.39 +31 40 06.9          19.4 GXEG074L51
     K24F05Q KC2024 03 31.08344 14 55 20.16 +31 38 59.0          19.3 GXEG074L51
     K24F05Q KC2024 03 31.08545 14 55 21.91 +31 37 51.9          19.2 GXEG074L51
     K24F05Q KC2024 03 31.14144714 58 31.716+31 02 01.14         19.4 GVEG074J95
     K24F05Q KC2024 03 31.14314414 58 34.070+31 00 55.26         18.9 GVEG074J95
     K24F05Q KC2024 03 31.14483914 58 36.382+30 59 48.08         19.1 GVEG074J95
     K24F05Q KB2024 03 31.19621 15 05 50.81 +30 44 40.6          18.1 GXEG074W42
     K24F05Q KB2024 03 31.22873 15 07 10.93 +30 23 54.7          17.9 GXEG074W42
     K24F05Q  C2024 03 31.22971915 08 37.073+30 02 27.02         18.6 GVEG074H01
     K24F05Q  C2024 03 31.23458415 08 54.090+29 58 58.49         18.9 GVEG074H01
     K24F05Q KB2024 03 31.23630 15 07 30.34 +30 18 19.7          18.9 GXEG074W42
     K24F05Q  C2024 03 31.24451615 09 29.290+29 51 32.57         19.0 GVEG074H01
     K24F05Q  C2024 03 31.25138315 09 53.979+29 46 08.06         18.8 GVEG074H01
     K24F05Q KC2024 03 31.29894 15 12 59.52 +28 31 24.4          18.4 GVEG074U55
     K24F05Q KC2024 03 31.30172 15 13 13.03 +28 28 04.0          19.2 GVEG074U55
     K24F05Q KC2024 03 31.31458815 14 24.688+28 44 13.49         18.51GVEG074V06
     K24F05Q KC2024 03 31.31507815 14 26.848+28 43 37.42         18.35GVEG074V06
     K24F05Q KC2024 03 31.31562915 14 29.267+28 42 57.42         18.03GVEG074V06

Observer details:
H01 Magdalena Ridge Observatory, Socorro.  Observers W. H. Ryan, E. V. Ryan.
    Measurer W. H. Ryan.  2.4-m f/8.9 Ritchey-Chretien + CCD.
J95 Great Shefford.  Observer P. Birtwhistle.  0.41-m f/6.3 Schmidt-Cassegrain
    + CCD.
L51 MARGO, Nauchnyi.  Observer G. Borisov.  0.50-m f/1.9 reflector + CCD.
U55 Golden Ears Observatory, Maple Ridge.  Observer B. Kumar.  0.25-m f/8
    Ritchey Chretien + CCD.
V06 Catalina Sky Survey-Kuiper.  Observers T. Beuden, H. Groeller.  Measurers
    T. Beuden, V. F. Carvajal, D. Fay, J. B. Fazekas, D. C. Fuls, A. R. Gibbs,
    A. D. Grauer, H. Groeller, J. K. Hogan, R. A. Kowalski, S. M. Larson, G.
    J. Leonard, D. Rankin, R. L. Seaman, F. C. Shelly, K. W. Wierzchos.
    1.55-m reflector + 1K CCD.
W42 Mind's Eye Observatory, Vero Beach.  Observer J. T. Grage.  0.30-m f/3.3
    SCT + CMO.

Orbital elements:
2024 FQ5                                                 Earth MOID = 0.0000 AU
Epoch 2024 Mar. 31.0 TT = JDT 2460400.5                 Veres                   
M 278.76593              (2000.0)            P               Q                  
n   0.98203071     Peri.  276.81347     +0.30436720     +0.95192800             
a   1.0024268      Node    11.09351     -0.78758451     +0.27189057             
e   0.1412459      Incl.   10.34431     -0.53579031     +0.14109784             
P   1.00           H   30.98          G   0.15           U   5                  
Residuals in seconds of arc
240331 L51  0.3+  2.9-    240331 J95  0.2+  0.6+    240331 H01  0.2-  0.1+
240331 L51  1.1+  1.3-    240331 J95  0.3-  0.6+    240331 H01  0.1-  0.2+
240331 L51  0.6+  0.1-    240331 W42  0.3+  0.8-    240331 U55 (1.6+  0.2-)
240331 L51  1.1+  0.2+    240331 W42 (2.3-  3.0+)   240331 U55 (3.5+  1.7-)
240331 L51  0.9+  0.1-    240331 H01  0.3+  0.3-    240331 V06  0.0   0.1+
240331 L51  0.2+  0.4+    240331 H01  0.1-  0.1+    240331 V06  0.1+  0.2-
240331 J95  0.1-  0.1-    240331 W42  1.3+  1.4-    240331 V06  0.1-  0.1+

Ephemeris:
2024 FQ5                 a,e,i = 1.00, 0.14, 10                  q = 0.8608
Date    TT    R. A. (2000) Decl.     Delta      r    Elong.  Phase     V
2024 03 07    14 25 54.2 +34 45 04   0.1007  1.0550   126.2    49.3    28.0
...
2024 03 22    14 34 45.2 +35 46 25   0.03932 1.0220   129.7    48.6    25.8
...
2024 03 30    14 42 45.3 +34 44 31   0.0068321.0032   131.2    48.6    22.0
...
2024 04 05    03 44 35.6 -20 13 12   0.01784 0.9888    48.9   130.3    28.0
2024 04 06    03 44 55.1 -20 04 28   0.02191 0.9863    48.4   130.7    28.4
2024 04 07    03 45 04.5 -19 57 49   0.02597 0.9838    47.8   131.1    28.8
...
2024 04 13    03 44 19.2 -19 30 00   0.05039 0.9674    44.4   133.5    30.5
...
2024 04 21    03 40 46.1 -18 44 49   0.08337 0.9426    40.1   136.7    31.9
...
2024 05 06    03 30 59.5 -15 50 19   0.1494  0.8884    33.7   140.9    33.6

M. P. C. Staff               (C) Copyright 2024 MPC           M.P.E.C. 2024-G74





More information about the Iaude mailing list